Weather History for Bentonville, AR

Change the Weather History Date:

Sunday, December 1, 2013

  Actual Average Record
Temperature  
Mean Temperature 47 °F -  
Max Temperature 55 °F 52 °F 70 °F (1982)
Min Temperature 39 °F 29 °F 14 °F (1979)
Degree Days  
Heating Degree Days 18    
Moisture  
Dew Point 43 °F    
Average Humidity 82    
Maximum Humidity 93    
Minimum Humidity 72    
Precipitation  
Precipitation 0.00 in - - ()
Sea Level Pressure  
Sea Level Pressure 30.02 in    
Wind  
Wind Speed 2 mph (South)    
Max Wind Speed 8 mph    
Max Gust Speed -    
Visibility 8 miles    
Events      
Averages and records for this station are not official NWS values.
T = Trace of Precipitation, MM = Missing Value Source: NWS Daily Summary

Daily Weather History Graph

Daily Weather History Graph

Search for Another Location

Airport:

Trip Planner

Search our weather history database for the weather conditions in past years. The results will help you decide how hot, cold, wet, or windy it might be!

Date:

Astronomy

Dec. 01, 2013 Rise Set
Actual Time 7:10 AM CST 5:01 PM CST
Civil Twilight 6:41 AM CST 5:30 PM CST
Nautical Twilight 6:09 AM CST 6:02 PM CST
Astronomical Twilight 5:38 AM CST 6:33 PM CST
Moon 5:31 AM CST (12/1) 4:10 PM CST (12/1)
Length of Visible Light 10h 48m
Length of Day
9h 51m
Waning Crescent, 2% of the Moon is Illuminated
Dec 1
Waning Crescent
Dec 2
New
Dec 9
First Quarter
Dec 17
Full
Dec 25
Last Quarter

Hourly Weather History & Observations

Time (CST) Temp. Windchill Dew Point Humidity Pressure Visibility Wind Dir Wind Speed Gust Speed Precip Events Conditions
12:15 AM 44.6 °F - 39.2 °F 81% 30.13 in 10.0 mi Calm Calm - N/A   Mostly Cloudy
12:35 AM 44.6 °F 43.1 °F 39.2 °F 81% 30.12 in 10.0 mi SSW 3.5 mph - N/A   Mostly Cloudy
12:55 AM 44.6 °F 43.1 °F 39.2 °F 81% 30.12 in 10.0 mi SW 3.5 mph - N/A   Mostly Cloudy
1:15 AM 44.6 °F - 39.2 °F 81% 30.11 in 10.0 mi Calm Calm - N/A   Scattered Clouds
1:35 AM 44.6 °F 43.1 °F 39.2 °F 81% 30.10 in 7.0 mi South 3.5 mph - N/A   Partly Cloudy
1:55 AM 42.8 °F - 37.4 °F 81% 30.11 in 7.0 mi Calm Calm - N/A   Clear
2:15 AM 42.8 °F - 39.2 °F 87% 30.11 in 5.0 mi Calm Calm - N/A   Clear
2:35 AM 42.8 °F 41.1 °F 39.2 °F 87% 30.11 in 8.0 mi South 3.5 mph - N/A   Clear
2:55 AM 42.8 °F 40.1 °F 39.2 °F 87% 30.11 in 9.0 mi South 4.6 mph - N/A   Clear
3:15 AM 44.6 °F 43.1 °F 39.2 °F 81% 30.11 in 10.0 mi South 3.5 mph - N/A   Clear
3:35 AM 44.6 °F 43.1 °F 41.0 °F 87% 30.10 in 10.0 mi South 3.5 mph - N/A   Clear
3:55 AM 44.6 °F - 39.2 °F 81% 30.10 in 10.0 mi Calm Calm - N/A   Clear
4:15 AM 42.8 °F - 37.4 °F 81% 30.09 in 7.0 mi Calm Calm - N/A   Clear
4:35 AM 42.8 °F - 39.2 °F 87% 30.09 in 10.0 mi Calm Calm - N/A   Clear
4:55 AM 42.8 °F - 37.4 °F 81% 30.09 in 8.0 mi Calm Calm - N/A   Clear
5:15 AM 42.8 °F - 37.4 °F 81% 30.08 in 7.0 mi Calm Calm - N/A   Clear
5:35 AM 42.8 °F - 37.4 °F 81% 30.09 in 5.0 mi Calm Calm - N/A   Clear
5:55 AM 42.8 °F 41.1 °F 39.2 °F 87% 30.08 in 5.0 mi SSE 3.5 mph - N/A   Clear
6:15 AM 42.8 °F - 37.4 °F 81% 30.08 in 2.0 mi Calm Calm - N/A   Clear
6:35 AM 42.8 °F - 39.2 °F 87% 30.09 in 5.0 mi Calm Calm - N/A   Clear
6:55 AM 42.8 °F 40.1 °F 41.0 °F 93% 30.09 in 3.0 mi SSE 4.6 mph - N/A   Scattered Clouds
7:15 AM 42.8 °F 41.1 °F 39.2 °F 87% 30.09 in 5.0 mi SSE 3.5 mph - N/A   Scattered Clouds
7:35 AM 42.8 °F 41.1 °F 39.2 °F 87% 30.10 in 3.0 mi SSE 3.5 mph - N/A   Scattered Clouds
7:55 AM 44.6 °F 43.1 °F 41.0 °F 87% 30.09 in 4.0 mi SE 3.5 mph - N/A   Mostly Cloudy
8:15 AM 46.4 °F - 42.8 °F 87% 30.09 in 4.0 mi Calm Calm - N/A   Overcast
8:35 AM 48.2 °F - 44.6 °F 87% 30.09 in 5.0 mi Calm Calm - N/A   Overcast
8:55 AM 48.2 °F - 44.6 °F 87% 30.10 in 7.0 mi Calm Calm - N/A   Overcast
9:15 AM 50.0 °F - 46.4 °F 87% 30.10 in 9.0 mi Calm Calm - N/A   Overcast
9:35 AM 51.8 °F - 46.4 °F 82% 30.10 in 10.0 mi South 3.5 mph - N/A   Overcast
9:55 AM 51.8 °F - 46.4 °F 82% 30.09 in 10.0 mi SSE 4.6 mph - N/A   Overcast
10:15 AM 51.8 °F - 46.4 °F 82% 30.09 in 10.0 mi South 5.8 mph - N/A   Overcast
10:35 AM 53.6 °F - 46.4 °F 77% 30.08 in 10.0 mi South 3.5 mph - N/A   Overcast
10:55 AM 53.6 °F - 46.4 °F 77% 30.08 in 10.0 mi SSW 5.8 mph - N/A   Overcast
11:15 AM 53.6 °F - 48.2 °F 82% 30.07 in 10.0 mi SSW 6.9 mph - N/A   Overcast
11:35 AM 53.6 °F - 48.2 °F 82% 30.06 in 10.0 mi SW 5.8 mph - N/A   Overcast
11:55 AM 53.6 °F - 46.4 °F 77% 30.05 in 10.0 mi SSW 6.9 mph - N/A   Overcast
12:15 PM 53.6 °F - 48.2 °F 82% 30.03 in 9.0 mi SW 8.1 mph - N/A   Overcast
12:35 PM 55.4 °F - 48.2 °F 77% 30.02 in 10.0 mi South 8.1 mph - N/A   Overcast
12:55 PM 55.4 °F - 48.2 °F 77% 30.01 in 10.0 mi SSW 4.6 mph - N/A   Overcast
1:15 PM 55.4 °F - 48.2 °F 77% 30.00 in 10.0 mi SSW 3.5 mph - N/A   Overcast
1:35 PM 55.4 °F - 48.2 °F 77% 30.00 in 10.0 mi South 3.5 mph - N/A   Overcast
1:55 PM 55.4 °F - 48.2 °F 77% 29.99 in 10.0 mi SSW 4.6 mph - N/A   Overcast
2:15 PM 55.4 °F - 48.2 °F 77% 29.98 in 10.0 mi South 3.5 mph - N/A   Overcast
2:35 PM 55.4 °F - 48.2 °F 77% 29.98 in 10.0 mi South 3.5 mph - N/A   Overcast
2:55 PM 55.4 °F - 48.2 °F 77% 29.98 in 10.0 mi SSW 5.8 mph - N/A   Overcast
3:15 PM 55.4 °F - 48.2 °F 77% 29.97 in 10.0 mi South 4.6 mph - N/A   Overcast
3:35 PM 55.4 °F - 46.4 °F 72% 29.97 in 10.0 mi SSW 3.5 mph - N/A   Overcast
3:55 PM 53.6 °F - 46.4 °F 77% 29.97 in 10.0 mi SW 3.5 mph - N/A   Overcast
4:15 PM 53.6 °F - 46.4 °F 77% 29.97 in 10.0 mi Calm Calm - N/A   Overcast
4:35 PM 53.6 °F - 46.4 °F 77% 29.97 in 10.0 mi SSW 3.5 mph - N/A   Overcast
4:55 PM 53.6 °F - 46.4 °F 77% 29.97 in 10.0 mi SSW 4.6 mph - N/A   Overcast
5:15 PM 53.6 °F - 46.4 °F 77% 29.96 in 10.0 mi SSW 3.5 mph - N/A   Overcast
5:35 PM 53.6 °F - 46.4 °F 77% 29.96 in 10.0 mi SSW 3.5 mph - N/A   Overcast
5:55 PM 53.6 °F - 46.4 °F 77% 29.96 in 10.0 mi Calm Calm - N/A   Overcast
6:15 PM 53.6 °F - 46.4 °F 77% 29.95 in 10.0 mi South 3.5 mph - N/A   Overcast
6:35 PM 53.6 °F - 46.4 °F 77% 29.95 in 10.0 mi Calm Calm - N/A   Overcast
6:55 PM 51.8 °F - 46.4 °F 82% 29.95 in 10.0 mi Calm Calm - N/A   Overcast
7:15 PM 51.8 °F - 46.4 °F 82% 29.95 in 10.0 mi Calm Calm - N/A   Overcast
7:35 PM 51.8 °F - 46.4 °F 82% 29.94 in 10.0 mi Calm Calm - N/A   Overcast
7:55 PM 51.8 °F - 46.4 °F 82% 29.95 in 9.0 mi Calm Calm - N/A   Overcast
8:15 PM 51.8 °F - 46.4 °F 82% 29.94 in 8.0 mi Calm Calm - N/A   Overcast
8:35 PM 50.0 °F - 44.6 °F 82% 29.94 in 7.0 mi Calm Calm - N/A   Overcast
8:55 PM 48.2 °F - 44.6 °F 87% 29.94 in 5.0 mi Calm Calm - N/A   Overcast
9:15 PM 48.2 °F - 44.6 °F 87% 29.93 in 4.0 mi Calm Calm - N/A   Overcast
9:35 PM 46.4 °F 45.2 °F 42.8 °F 87% 29.92 in 3.0 mi SSE 3.5 mph - N/A   Scattered Clouds
9:55 PM 44.6 °F - 41.0 °F 87% 29.92 in 0.5 mi Calm Calm - N/A   Scattered Clouds
10:15 PM 46.4 °F 45.2 °F 42.8 °F 87% 29.91 in 0.2 mi SSE 3.5 mph - N/A   Overcast
10:35 PM 42.8 °F 41.1 °F 39.2 °F 87% 29.90 in 0.2 mi South 3.5 mph - N/A   Overcast
10:55 PM 39.2 °F - 37.4 °F 93% 29.89 in 0.2 mi Calm Calm - N/A   Mostly Cloudy
11:15 PM 42.8 °F - 39.2 °F 87% 29.88 in 0.2 mi Calm Calm - N/A   Mostly Cloudy
11:35 PM 39.2 °F - 37.4 °F 93% 29.89 in 0.2 mi Calm Calm - N/A   Overcast
11:55 PM 39.2 °F - 35.6 °F 87% 29.88 in 0.2 mi Calm Calm - N/A   Overcast